Location: Unspecified
(0.0000°N, 0.0000°E)
Time: 10:52:09
(UTC+00:00)

Meteor 2-6 Rocket - Pass Details

Date: 27 January 2013
Orbit: 806 x 915 km, 81.3° (Epoch: 22 May)

Event Time Altitude Azimuth Distance (km) Brightness Sun altitude
Rises 19:03:24 0° 358° (N) 3,507 7.2 -12.0°
Reaches altitude 10° 19:05:52 10° 359° (N) 2,557 6.5 -12.6°
Maximum altitude 19:11:41 78° 85° (E) 899 4.2 -13.9°
Drops below altitude 10° 19:17:22 10° 171° (S) 2,496 6.8 -15.3°
Sets 19:19:46 0° 172° (S) 3,417 7.5 -15.9°
